Lapse_Rate
5.8 5.5 5.6 5.7 6.0 6.0 5.9 5.8 5.7 5.6 5.5 5.7 5.9 5.9 5.7 5.7 6.0 6.1 6.2 6.1 5.9 5.6
5.5 5.5 5.5 5.6 5.8 6.0 6.0 6.0 5.8 5.7 5.5 5.7 5.8 5.7 5.6 5.7 5.8 6.0 6.0 5.9 5.7 6.1
5.7 5.5 5.4 5.5 5.8 5.8 6.0 6.0 6.0 5.8 5.6 5.7 5.8 5.8 5.9 6.0 6.0 5.9 5.9 5.9 6.1 6.0
5.7 5.4 5.5 5.7 5.8 5.6 5.8 6.1 6.2 6.1 5.8 5.9 6.0 6.1 6.0 6.1 6.0 5.9 6.0 6.1 5.9 5.9
5.7 5.5 5.5 5.8 5.8 5.6 5.7 6.1 6.2 6.1 6.0 5.9 6.1 6.2 6.2 6.2 6.1 6.1 6.0 5.9 5.9 5.8
5.8 5.6 5.7 5.8 5.9 5.6 5.7 5.9 6.0 6.1 6.2 6.2 6.1 6.2 6.2 6.0 6.1 6.0 6.0 6.0 6.0 6.1
5.8 5.7 5.9 6.0 5.8 5.7 5.9 5.8 5.9 6.2 6.3 6.3 6.5 6.4 6.0 6.1 6.1 6.0 5.9 5.9 5.9 5.9
5.8 5.7 5.8 6.0 5.9 5.8 5.7 5.9 5.9 6.0 6.2 6.2 6.2 6.2 6.0 6.1 6.0 5.8 5.8 5.8 5.9 5.9
5.8 5.8 5.7 5.9 5.9 5.8 5.9 6.0 6.0 5.9 5.9 6.1 6.1 6.1 6.0 6.0 5.8 5.7 5.8 6.0 5.8 6.0
5.8 5.6 5.5 5.8 6.1 6.0 6.2 6.2 6.2 6.0 6.0 6.0 6.1 6.0 5.9 5.7 5.7 5.8 5.7 5.5 5.7 5.8
6.0 5.8 5.6 5.6 5.9 6.1 6.2 6.2 6.2 6.3 6.1 6.0 6.0 5.8 5.8 5.5 5.5 5.8 5.8 5.7 5.7 5.6
6.3 6.1 6.0 6.0 6.0 6.1 6.3 6.2 6.2 6.2 6.0 5.9 5.6 5.3 5.6 5.5 5.7 5.9 5.8 5.7 5.7 5.7
6.5 6.4 6.3 6.2 6.2 6.2 6.2 6.2 6.2 6.0 6.0 6.1 5.6 5.6 5.5 5.6 5.4 5.6 5.3 5.4 5.5 5.6
6.8 6.6 6.4 6.3 6.4 6.3 6.3 6.3 6.5 6.4 6.2 6.0 5.7 5.6 5.7 5.8 5.7 5.6 5.5 5.7 5.9 6.0
Wind_Speed
4 3 2 2 2 2 2 3 2 3 3 3 4 3 3 2 3 3 3 4 3 2
4 5 3 3 3 3 3 2 2 2 4 4 4 3 3 2 3 3 3 4 4 2
5 5 4 3 4 5 3 2 3 3 4 4 4 4 5 4 3 4 3 3 6 5
5 5 4 4 4 4 3 3 3 3 4 4 5 4 5 3 3 5 5 5 6 7
5 5 5 4 4 4 3 2 2 4 4 5 5 4 5 4 5 6 5 6 7 8
4 5 5 5 4 4 4 4 3 4 5 5 5 5 4 5 6 6 5 6 7 8
5 5 4 5 5 5 4 4 4 4 6 5 5 5 5 6 6 6 6 7 6 7
5 5 5 5 5 5 5 4 4 6 6 6 5 4 6 7 8 6 7 7 6 6
6 6 5 5 5 5 5 5 4 5 7 6 4 9 9 8 7 6 7 8 7 7
6 6 5 5 5 5 5 4 4 4 4 5 5 8 10 9 5 5 6 8 8 8
6 7 6 6 5 4 3 4 4 4 4 5 4 10 9 10 8 6 7 7 7 9
6 7 7 6 6 3 4 3 2 3 5 6 5 7 10 8 7 8 9 7 6 8
7 9 8 7 7 4 3 4 4 4 3 6 6 6 9 7 6 7 5 4 5 9
6 8 8 7 4 5 5 5 4 5 3 4 4 6 7 8 5 5 5 5 4 4
Wind_Direction
171 140 143 181 166 132 134 130 137 123 118 102 104 130 140 143 160 157 136 146 142 201
174 146 157 159 134 113 114 130 112 105 91 81 90 102 134 136 164 132 137 132 166 159
173 151 159 162 133 133 135 119 110 81 89 92 93 95 104 113 116 121 115 131 138 119
165 153 164 155 143 147 138 147 148 118 109 113 107 112 110 109 113 106 118 107 111 107
160 144 167 158 156 149 142 158 172 133 119 119 120 122 128 131 95 99 90 104 102 97
163 143 155 163 155 143 138 140 131 123 121 128 130 122 110 104 97 88 88 98 105 119
162 144 143 141 134 129 139 134 127 125 124 124 123 118 110 99 96 90 89 90 99 106
134 123 125 127 126 129 131 127 126 118 121 127 122 123 117 108 113 92 91 89 90 79
132 129 130 133 138 135 133 129 127 128 136 139 130 137 124 128 129 116 113 103 99 105
145 137 143 140 135 138 142 140 133 123 134 136 137 144 144 127 131 113 111 114 122 115
152 144 145 134 135 125 124 144 138 133 137 131 130 152 137 122 123 119 110 121 124 125
157 152 152 149 152 147 132 128 140 145 139 133 145 145 134 123 127 127 127 124 119 127
157 155 165 158 162 147 135 136 132 124 143 131 146 161 149 135 127 121 122 92 107 99
165 164 164 153 157 143 132 122 118 113 120 135 161 170 171 148 136 134 135 144 145 154